sat.trackr.live / text

‹ back to catalog

STARLINK-2211

NORAD 47778 · 2021-017BJ

PAYLOAD ACTIVE UNKNOWN

§ Identity

Operator
Country
US
Launch date
2021-03-04
Launch site
AFETR
Launch vehicle
Mass (kg)
RCS (m²)

Purposes: comms

External: N2YO · Heavens-Above · Gunter

§ Orbital elements

Epoch: 2026-05-24T21:24:15.437376Z

Period
93.08 min
Inclination
53.1584°
Eccentricity
0.0005978
Mean motion
15.46989309 rev/d
Perigee alt
421.5 km
Apogee alt
429.6 km
Semi-major
6,803.7 km
B*
1.0478e-3
RAAN
203.8474°
Arg perigee
339.0545°
Mean anomaly
21.0217°
Rev number
28,961

§ Raw data

STARLINK-22111 47778U 21017BJ  26144.89184534  .00053706  00000+0  10478-2 0  99952 47778  53.1584 203.8474 0005978 339.0545  21.0217 15.46989309289610

JSON: /api/v1/satellites/47778 · /tle

For live sub-satellite position, see the globe view (requires WebGL).

§ Visibility from observer

Set your observer location to see the next 7 days of passes ≥ 10°. The values pass through the URL so the page stays shareable.

No JS? Fill the form by hand. The geolocation button needs JavaScript.